Starlink 2119

operational
NORAD ID: 47397 Int'l Des: 2021-005 Owner: SPXS Country: US Constellation: starlink
LEOCIRCULARSTARLINK_TYPE

Über Starlink 2119

Beschreibung wird geladen...

Live-Position

3D-Globus wird geladen...

Nächste Überflüge

Höhenverlauf

Altitude vs Time

uPlot chart will show altitude changes over time

Zweizeiliger Elementsatz

1 47397U 21005BA 25350.94317654 .00000572 00000-0 57306-4 0 9991
2 47397 53.0566 73.0844 0001547 96.4451 263.6714 15.06408766270572
Epoch: 16. Dez. 2025 • Age: 9 hours

Aktueller Status

Höhe 555.8 km
Geschwindigkeit 7.58 km/s
Subsatellitenpunkt -27.37°S, 74.8°E
Startdatum 20. Jan. 2021
Alter 4.9 years
Typ internet

Technische Details

Klassifizierung Payload
Masse 260.00 kg
Trockenmasse 248.00 kg
Gesamtmasse 260.00 kg
Länge 0.20 m
Durchmesser 2.80 m
Spannweite 9.00 m
Form Box + pan
Hersteller SPXS
Bus-Typ Starlink
Phasenstatus In Orbit
Besitzer/Staat SPXS/US

Große Konstellationen

Loading constellations...